Strona główna
METAR-TAF:

METAR-TAF

Lotnisko :

Benton Harbor, Michigan, Stany Zjednoczone

Szerokość geograficzna: 42-07-43N, Długość geograficzna: 086-25-42W, wysokość: 196 m

Aktualna obserwacja pogody

Raport powstał 1 godzina i 8 minut temu, godzina 05:53 UTC
Wiatr 3 kt od południowo-południowy wschód
Temperatura 21°C
Wilgotność 83%
Ciśnienie 1013 hPa
Widzialność: 16.1 km
bezchmurnie

METAR: KBEH 280553Z AUTO 15003KT 10SM CLR 21/18 A2992 RMK AO2 SLP128 60033 T02060183 10222 20200 58006

czas: 03:01 (07:01 UTC)


TAF: brakujący

Obserwacja i prognoza pogody dla ponad 4000 lotnisk (raport METAR i TAF).

Dostępne stacje oznaczono żółtymi i czerwonymi punktami na mapie.

Najedź kursorem aby zobaczyć nazwę stacji.

Kliknij aby zobaczyć obserwacje i prognozy pogody.

Aby zmienić mapę: kliknij na zielony przycisk z czarnym krzyżykiem, aby powiększyć; na zielony przycisk z myślnikiem, aby pomniejszyć; na zielone strzałki, aby przejść do map sąsiednich.


METAR-TAF: